Location: ???????
(55.3754°N, 39.3545°E)
Time: 15:53:55
(UTC+00:00)

CZ-4B DEB - Pass Details

Date: 14 April 2026
Orbit: 834 x 853 km, 98.9° (Epoch: 17 May)

Event Time Altitude Azimuth Distance (km) Brightness Sun altitude
Rises 17:11:14 0° 163° (SSE) 3,385 6.9 -6.8°
Reaches altitude 10° 17:13:35 10° 165° (SSE) 2,458 6.2 -7.1°
Maximum altitude 17:19:03 83° 253° (WSW) 860 4.3 -7.8°
Drops below altitude 10° 17:24:35 10° 342° (NNW) 2,488 7.4 -8.4°
Sets 17:26:58 0° 343° (NNW) 3,430 8.2 -8.7°
